OPS 4682 DEB, 1399

Orbit data source: Space-Track

OPS 4682 DEB, 1399 is space debris in LEO originally from a launch on Sat, 03 Apr 1965 UTC launched from the Air Force Western Test Range (AFWTR). Debris objects in space refer to the collection of defunct objects orbiting the Earth. Examples of debris include non-operational satellites, rocket bodies, and fragments generated from explosions, collisions, or faulty payload assembly.

Loading next visibility...
Identifier
1399, 1965-027E
Orbit
LEO
Country
Flag of USUS
Related business
Manufacturer
Unknown
Mission
Spacecraft
Bus & Motor
Unknown
Mass
Unknown
Launch date (UTC)
1965-04-03 (61 years ago)
Launch vehicle
Unknown
Launch site
Air Force Western Test Range (AFWTR)
Object type
Payload
Rocket body
Debris
Shape & HBR
Unknown shape, 0.1 m
Radar Cross Section
Medium (>0.1 m² and <1 m²)

Expand to show TLE details & history
Last TLE update: 1 week ago

TLE from 1 week ago
0 OPS 4682 DEB
1 01399U 65027E   26152.64032631  .00000899  00000-0  29669-2 0  9993
2 01399  90.2710  24.6753 0008934 339.5851  20.4912 12.99929044631083
Epoch: 2026-06-01T15:22Z
TLE epoch observation values (Epoch: 2026-06-01T15:22:04.193Z)
Latitude
-0.00008°
Longitude
-95.96692°
Altitude
1,258.854 km
Speed
7.229 km/s
True Right ascension
01h 38m 42s
True Declination
0° 00' 00"
Sunlit
Object was in daylight at epoch
Visualization orbit readout
Latitude
Unknown
Longitude
Unknown
Altitude
Unknown
Speed
Unknown
Apparent Right ascension
Unknown
Apparent Declination
Unknown
Sunlit
N/A
Visualization observer readout
Local Sidereal Time
11:50:53
Azimuth
Unknown
Elevation
Unknown
Doppler factor
Unknown
Orbital elements
Apogee altitude
1,266.315 km
Perigee altitude
1,252.668 km
Semi-major axis
7,637.629 km
Eccentricity
0.00089
Inclination
90.271°
RAAN
24.6753°
Arg. of periapsis
339.5851°
True anomaly
20.52708°
Mean anomaly
20.4912°
Eccentric anomaly
20.50913°
Mean motion
3.25166 °/min
Orbital period
110.71 mins
BSTAR
0.0029669
Loading maneuver chart data...
Computing Atmospheric mass density...
Loading historical data...
Loading historical data...
Loading historical data...
Loading historical data...
Loading historical data...
Loading historical data...
Loading historical data...

Documentation

Showing up to 5 results
|